www.pogodaiklimat.ru

Погода и климат >> Архив погоды >> Соломоновы Острова >> Остров Таро


ПОГОДА на Острове Таро

  • Прогноз погоды на Острове Таро
  • Монитор погоды на Острове Таро

АРХИВ ПОГОДЫ на Острове Таро

Время (UTC), дата Ветер
(напр.,м/с)
 
Видим.   Явления Облачность Т
(С)
Тd
(С)
f
(%)
Тe
(С)
Тes
(С)
Комфортность P
(гПа)
Po
(гПа)
Тmin
(С)
Tmax
(С)
R
(мм)
R24
(мм)
S
(см)
06 10.07 Ю 4 10 км осадки на расстоянии {морось} 10/6 420 м
[Cu Sc Ac As]
+26.9 +24.4 86 +38 +38 очень
душно
1009.1 1008.8 1
12 10.07 ЮВ 6 10 км осадки на расстоянии {морось} 9/5 420 м
[Cu Sc Ac As Cs]
+27.0 +24.1 84 +37 +37 очень
душно
1010.7 1010.4 +28.0 0.8
15 10.07 Ю 4 10 км осадки на расстоянии 10/8 420 м
[Cb cap Ac As]
+26.3 +24.5 90 +37 +37 очень
душно
1009.0 1008.7
18 10.07 ЮВ 4 20 км осадки на расстоянии 10/5 420 м
[Cu Sc Ac As Cs]
+26.6 +23.4 83 +36 +36 очень
душно
1009.3 1009.0
21 10.07 ЮВ 3 20 км осадки на расстоянии {морось} 9/5 420 м
[Cb cap Ac As Cs]
+26.6 +24.0 86 +37 +37 очень
душно
1010.8 1010.5 0.2
00 11.07 Ю 5 20 км осадки на расстоянии {ливн. осадки} 10/5 420 м
[Cu Sc Ac As Cs]
+28.1 +24.9 83 +40 +42 очень
душно
1011.3 1011.0 4 8
03 11.07 Ю 6 20 км осадки на расстоянии {ливн. осадки} 10/6 420 м
[Cb cap Ac As]
+28.8 +26.5 87 +44 +44 опасность
перегрева
1009.3 1009.0 2
06 11.07 Ю 3 10 км осадки на расстоянии {ливн. осадки} 10/10 420 м
[Cb cap]
+26.8 +24.4 87 +38 +38 очень
душно
1009.3 1009.0 1
09 11.07 Ю 8 10 км слаб. ливневой дождь 10/10 420 м
[Cb cap]
+26.5 +23.6 84 +36 +36 очень
душно
1010.7 1010.4 6
12 11.07 Ю 9 10 км ливневой дождь 10/10 420 м
[Cb cap]
+25.4 +24.6 95 +36 +36 очень
душно
1012.1 1011.8 +29.0 25
21 11.07 Ю 3 4000 м слаб. дождь 10/6 420 м
[Cu Sc As op]
+25.1 +24.7 98 +35 +35 очень
душно
1011.6 1011.3 56
00 12.07 Ю 3 10 км слаб. дождь {морось} 10/6 420 м
[Cu Sc As op]
+26.5 +25.8 96 +39 +40 очень
душно
1011.5 1011.2 2 92
03 12.07 Ю 3 20 км осадки на расстоянии {ливн. осадки} 10/10 420 м
[Cb cap]
+28.7 +25.7 84 +43 +43 опасность
перегрева
1009.0 1008.7 1
06 12.07 Ю 3 20 км осадки на расстоянии {морось} 9/4 420 м
[Cb cap Ac trans Cs]
+27.4 +25.2 88 +40 +40 очень
душно
1007.9 1007.6 0.2
09 12.07 ЮВ 2 20 км зарница 9/3 420 м
[Cb cap Ac trans Cs]
+26.4 +24.2 88 +37 +37 очень
душно
1009.4 1009.1
12 12.07 В 2 20 км осадки на расстоянии 9/3 420 м
[Cb cap Ac trans Cs]
+26.2 +24.1 88 +36 +36 очень
душно
1010.4 1010.1 +28.9
15 12.07 штиль 0 20 км осадки на расстоянии 10/3 420 м
[Cb cap Ac As Cs]
+25.3 +24.8 97 +36 +36 очень
душно
1008.3 1008.0
18 12.07 ЮВ 1 20 км осадки на расстоянии 1/1 420 м
[Cb cap]
+26.0 +24.6 92 +37 +37 очень
душно
1007.4 1007.1
21 12.07 ЮВ 3 20 км осадки на расстоянии 1/1 420 м
[Cb cap Ci fib]
+26.6 +24.6 89 +38 +39 очень
душно
1009.6 1009.3
00 13.07 Ю 3 20 км осадки на расстоянии 5/3 420 м
[Cb cap Ac trans Ci ing]
+29.5 +26.0 81 +44 +51 опасность
перегрева
1009.4 1009.1 1
03 13.07 Ю 3 20 км осадки на расстоянии 5/5 480 м
[Cu Sc Ac cuf Ci fib]
+30.5 +25.6 75 +45 +51 опасность
перегрева
1007.6 1007.3
06 13.07 Ю 2 20 км осадки на расстоянии {морось} 5/5 420 м
[Cb cap Ci fib]
+29.0 +26.7 87 +45 +46 опасность
перегрева
1007.1 1006.8 0.4
18 13.07 В 1 20 км осадки на расстоянии {морось} 10/5 420 м
[Cb cap Ac As]
+25.3 +24.9 98 +36 +36 очень
душно
1008.4 1008.1 0.4
21 13.07 штиль 0 20 км осадки на расстоянии {ливн. осадки} 10/3 420 м
[Cb cap Ac As]
+25.2 +24.6 96 +35 +35 очень
душно
1009.2 1008.9 3
00 14.07 ЮВ 1 20 км осадки на расстоянии 10/3 420 м
[Cb cap Ac As]
+27.8 +25.2 86 +40 +44 очень
душно
1010.0 1009.7 4
03 14.07 ЮВ 3 20 км слаб. ливневой дождь 10/6 420 м
[Cb cap Ac As]
+27.7 +24.3 82 +39 +39 очень
душно
1008.5 1008.2 0.6
06 14.07 штиль 0 20 км осадки на расстоянии {ливн. осадки} 10/3 420 м
[Cb cap Ac As]
+27.5 +24.9 86 +39 +40 очень
душно
1006.6 1006.3 0.4
09 14.07 Ю 3 20 км осадки на расстоянии 10/4 420 м
[Cb cap Ac As]
+27.3 +24.2 83 +38 +38 очень
душно
1008.2 1007.9
12 14.07 В 2 20 км осадки на расстоянии 9/5 420 м
[Cb cap Ac trans Cs]
+27.0 +24.1 84 +37 +37 очень
душно
1009.6 1009.3 +31.0
18 14.07 В 1 10 км слаб. морось 10/10 420 м
[Cu Sc]
+25.3 +24.2 94 +35 +35 очень
душно
1008.1 1007.8 2
21 14.07 штиль 0 20 км осадки на расстоянии {морось} 8/5 420 м
[Cu Sc Ac trans Ci fib]
+26.6 +24.6 89 +38 +38 очень
душно
1009.3 1009.0 0.2
00 15.07 Ю 2 20 км осадки на расстоянии 8/4 450 м
[Cu med, cong Ac cuf Ci fib]
+29.0 +24.7 78 +41 +47 опасность
перегрева
1010.4 1010.1 2
03 15.07 Ю 2 20 км осадки на расстоянии 9/4 480 м
[Cu med, cong Ac trans Cs]
+29.4 +24.5 75 +42 +43 опасность
перегрева
1008.4 1008.1
06 15.07 штиль 0 20 км осадки на расстоянии 8/3 420 м
[Cb cap Ac trans Cs]
+28.8 +24.9 79 +41 +43 опасность
перегрева
1007.6 1007.3
09 15.07 штиль 0 20 км осадки на расстоянии 6/3 420 м
[Cu Sc Ac trans Cs]
+26.9 +24.9 89 +39 +39 очень
душно
1009.1 1008.8
12 15.07 штиль 0 20 км осадки на расстоянии 9/3 420 м
[Cu med, cong Ac trans]
+25.3 +24.4 95 +35 +35 очень
душно
1010.4 1010.1 +30.7
15 15.07 штиль 0 20 км осадки на расстоянии 4/1 420 м
[Cb cap Ci ing]
+25.0 +24.3 96 +35 +35 очень
душно
1009.0 1008.7
18 15.07 штиль 0 20 км осадки на расстоянии 10/3 420 м
[Cb cap Ac As Cs]
+25.6 +24.6 94 +36 +36 очень
душно
1008.7 1008.4
21 15.07 ЮВ 1 20 км осадки на расстоянии {ливн. осадки} 8/3 420 м
[Cb cap Ac As Ci ing]
+25.9 +25.3 96 +37 +38 очень
душно
1010.5 1010.2 7
00 16.07 Ю 1 20 км осадки на расстоянии {ливн. осадки} 9/3 420 м
[Cb cap Cs]
+28.5 +25.7 85 +42 +52 опасность
перегрева
1010.4 1010.1 7
03 16.07 Ю 2 20 км 5/3 450 м
[Cu med, cong Ci fib]
+30.5 +24.7 71 +43 +51 опасность
перегрева
1008.3 1008.0
06 16.07 Ю 3 20 км 5/4 540 м
[Cu hum Ci fib]
+29.1 +25.3 80 +42 +44 опасность
перегрева
1007.6 1007.3
09 16.07 Ю 2 20 км 4/3 480 м
[Cu med, cong Ci fib]
+27.2 +25.3 89 +39 +39 очень
душно
1009.3 1009.0
12 16.07 Ю 2 20 км 4/3 450 м
[Cu med, cong Ci fib]
+27.0 +24.9 88 +39 +39 очень
душно
1010.6 1010.3 +31.0
15 16.07 Ю 1 20 км 4/4 420 м
[Cu med, cong Ci fib]
+26.8 +25.0 90 +39 +39 очень
душно
1009.2 1008.9
18 16.07 Ю 2 20 км осадки на расстоянии 8/4 420 м
[Cu med, cong Ac trans Ci sp]
+26.9 +25.4 92 +39 +39 очень
душно
1008.8 1008.5
21 16.07 Ю 1 2000 м осадки на расстоянии {ливн. осадки} 9/5 420 м
[Cu Sc]
+25.8 +24.9 95 +37 +37 очень
душно
1010.5 1010.2 7
00 17.07 Ю 2 20 км осадки на расстоянии {ливн. осадки} 5/3 450 м
[Cu Sc Ac trans Cs]
+27.2 +25.1 88 +39 +48 очень
душно
1010.8 1010.5 24 31
03 17.07 Ю 4 20 км осадки на расстоянии 8/3 450 м
[Cb cap Ac trans Cs]
+29.1 +26.1 84 +44 +47 опасность
перегрева
1008.8 1008.5

 

Местоположение метеостанции Остров Таро (Соломоновы Острова): широта -6.71 долгота 156.40 высота над уровнем моря 3 м.

В архиве по умолчанию представлена погода на Острове Таро за последнюю неделю. Архивные данные за месяц целиком и за предыдущие месяцы, начиная с января 2011 года, Вы можете получить, выбрав интересующий диапазон дат из раскрывающегося списка и нажав кнопку "Ввод!".


*Определитесь, кто Вы:
робот инопланетянин человек

Внимание! Время в таблицах - всемирное. Для получения местного времени необходимо прибавить поправку, которая равна 11 ч.

Смотрите также архив погоды в соседних городах и на ближайших метеорологических станциях:

Погода в Манде (Соломоновы Острова) (204 км)
Погода в Хониаре (Соломоновы Острова) (495 км)
Погода в Хониара аэропорту (Соломоновы Острова) (502 км)
Погода в Токуа (Папуа Новая Гвинея) (520 км)
Погода в Ауки (Соломоновы Острова) (530 км)
Погода на Мисиме (Папуа Новая Гвинея) (591 км)
Погода в Кавиенге (Папуа Новая Гвинея) (772 км)
Погода в Герни (Папуа Новая Гвинея) (778 км)
Погода на Атолле Капингамаранги (Микронезия) (885 км)
Погода в Порт-Морсби (Папуа Новая Гвинея) (1055 км)

Пояснения к столбцам:

Ветер - указаны скорость ветра в м/с - средняя за 10 мин, порывы в срок и между сроками (в фигурных скобках) и направление, откуда дует ветер: С - северный, СВ - северо-восточный, В - восточный, ЮВ - юго-восточный, Ю - южный, ЮЗ - юго-западный, З - западный, СЗ - северо-западный.
Видимость - горизонтальная дальность видимости в метрах или километрах. При видимости от 1 до 10 км при отсутствии осадков обычно наблюдается дымка, при ухудшении видимости до 1 км и менее - туман. В сухую погоду видимость может ухудшаться дымом, пылью или мглою.
Явления - указаны атмосферные явления, наблюдавшиеся в срок или в последний час перед сроком; фигурными скобками обозначены явления, наблюдавшиеся между сроками (за 1-3 часа до срока); квадратными скобками обозначены град или гололедные отложения с указанием их диаметра в мм.
Облачность - указаны через наклонную черту общая и нижняя облачность в баллах и высота нижней границы облаков в метрах; квадратными скобками обозначены формы облаков: Ci - перистые, Cs - перисто-слоистые, Cc - перисто-кучевые, Ac - высококучевые, As - высокослоистые, Sc - слоисто-кучевые, Ns - слоисто-дождевые, Cu - кучевые, Cb - кучево-дождевые. Подробнее классификацию облаков см. в Атласе облаков (PDF).
T - Температура воздуха - температура, измеренная на высоте 2 м над землей.
Td - Температура точки росы - температура, при понижении до которой содержащийся в воздухе водяной пар достигнет насыщения.
f - Относительная влажность воздуха - влажноcть воздуха, измеренная на высоте 2 м над землей.
Te - Эффективная температура - температура, которую ощущает одетый по сезону человек в тени. Характеристика душности погоды. При расчете учитывается влияние влажности воздуха и скорости ветра на теплоощущения человека.
Tes - Эффективная температура на солнце - температура, которую ощущает человек, с поправкой на солнечный нагрев. Характеристика знойности погоды. Зависит от высоты солнца над горизонтом, облачности и скорости ветра. Ночью, в пасмурную погоду, а также при ветре 12 м/с и более поправка равна нулю.
P - Атмосферное давление - приведенное к уровню моря атмосферное давление.
Po - Атмосферное давление - измеренное на уровне метеостанции атмосферное давление.
Tmin - Минимальная температура - минимум температуры воздуха на высоте 2 м над землей.
Tmax - Максимальная температура - максимум температуры воздуха на высоте 2 м над землей.
R - Количество осадков - Количество выпавших осадков за период времени, мм. При наведении курсора мыши на число - период времени, за который выпало указанное количество осадков.
R24 - Количество осадков - Количество выпавших осадков за 24 часа, мм.
S - Снежный покров - Высота снежного покрова, см. При наведении курсора мыши на число - состояние снежного покрова и степень покрытия местности в баллах.